Tabellarische Übersicht vom Montag, den 11.12.2017

Oder anderes Datum wählen:






max 3,9°C 96,0% 1,9°C 985,2hPa 4,0°C 0,0km/h (0Bft) 0,0km/h 0° (N) ∑0,0l/m² 1,000klx ∑100,6min
min 0,9°C 83,0% -0,7°C 979,4hPa 1,0°C 0,0km/h (0Bft) 0,0km/h 0° (N) ∑0,0l/m² 0,000klx ∑100,6min
Ø 2,0°C 88,0% 0,2°C 982,8hPa 2,0°C 0,0km/h (0Bft) 0,0km/h 0° (N) ∑0,0l/m² 0,000klx ∑100,6min
Zeit Temperatur Luftfeuchte Taupunkt Luftdruck Windchill Windböen Windgeschwindigkeit Windrichtung Regen Helligkeit Regenzeit
12:05 1,0°C 96,5% 0,4°C 980,0hPa 1,0°C 0,0km/h (0Bft) 0,0km/h 0,0l/m² 0,209klx 5,0min
12:00 1,0°C 96,4% 0,5°C 980,3hPa 1,0°C 0,0km/h (0Bft) 0,0km/h 0,0l/m² 0,205klx 5,0min
11:55 1,0°C 96,3% 0,4°C 980,5hPa 1,0°C 0,0km/h (0Bft) 0,0km/h 0,0l/m² 0,177klx 5,0min
11:50 1,0°C 96,2% 0,5°C 980,7hPa 1,0°C 0,0km/h (0Bft) 0,0km/h 0,0l/m² 0,174klx 5,0min
11:45 1,0°C 96,2% 0,5°C 980,8hPa 1,0°C 0,0km/h (0Bft) 0,0km/h 0,0l/m² 0,191klx 5,0min
11:40 1,0°C 96,1% 0,4°C 980,9hPa 1,0°C 0,0km/h (0Bft) 0,0km/h 0,0l/m² 0,220klx 5,0min
11:35 1,0°C 96,0% 0,4°C 980,9hPa 1,0°C 0,0km/h (0Bft) 0,0km/h 0,0l/m² 0,247klx 5,0min
11:30 1,0°C 95,9% 0,4°C 980,8hPa 1,0°C 0,0km/h (0Bft) 0,0km/h 0,0l/m² 0,293klx 5,0min
11:25 1,0°C 95,8% 0,4°C 981,0hPa 1,0°C 0,0km/h (0Bft) 0,0km/h 0,0l/m² 0,288klx 5,0min
11:20 1,0°C 95,7% 0,4°C 981,0hPa 1,0°C 0,0km/h (0Bft) 0,0km/h 0,0l/m² 0,307klx 5,0min
11:15 1,0°C 95,6% 0,3°C 981,1hPa 1,0°C 0,0km/h (0Bft) 0,0km/h 0,0l/m² 0,343klx 5,0min
11:10 1,0°C 95,5% 0,3°C 981,3hPa 1,0°C 0,0km/h (0Bft) 0,0km/h 0,0l/m² 0,385klx 5,0min
11:05 1,0°C 95,3% 0,4°C 981,7hPa 1,0°C 0,0km/h (0Bft) 0,0km/h 0,0l/m² 0,441klx 5,0min
11:00 1,0°C 95,0% 0,3°C 981,9hPa 1,0°C 0,0km/h (0Bft) 0,0km/h 0,0l/m² 0,470klx 5,0min
10:55 1,1°C 94,8% 0,3°C 981,9hPa 1,1°C 0,0km/h (0Bft) 0,0km/h 0,0l/m² 0,537klx 5,0min
10:50 1,1°C 94,6% 0,3°C 981,8hPa 1,1°C 0,0km/h (0Bft) 0,0km/h 0,0l/m² 0,672klx 5,0min
10:45 1,1°C 94,3% 0,3°C 982,0hPa 1,1°C 0,0km/h (0Bft) 0,0km/h 0,0l/m² 0,689klx 5,0min
10:40 1,1°C 93,9% 0,3°C 982,1hPa 1,1°C 0,0km/h (0Bft) 0,0km/h 0,0l/m² 0,758klx 5,0min
10:35 1,1°C 93,8% 0,2°C 982,0hPa 1,1°C 0,0km/h (0Bft) 0,0km/h 0,0l/m² 0,911klx 5,0min
10:30 1,1°C 93,6% 0,2°C 982,1hPa 1,1°C 0,0km/h (0Bft) 0,0km/h 0,0l/m² 1,060klx 4,5min
10:25 1,1°C 93,6% 0,2°C 981,9hPa 1,1°C 0,0km/h (0Bft) 0,0km/h 0,0l/m² 1,074klx 1,1min
10:20 1,1°C 93,2% 0,1°C 982,1hPa 1,1°C 0,0km/h (0Bft) 0,0km/h 0,0l/m² 0,991klx 0,0min
10:15 1,1°C 92,9% 0,1°C 982,2hPa 1,1°C 0,0km/h (0Bft) 0,0km/h 0,0l/m² 0,996klx 0,0min
10:10 1,2°C 92,2% 0,1°C 982,3hPa 1,2°C 0,0km/h (0Bft) 0,0km/h 0,0l/m² 1,017klx 0,0min
10:05 1,2°C 91,6% 0,0°C 982,3hPa 1,2°C 0,0km/h (0Bft) 0,0km/h 0,0l/m² 1,036klx 0,0min
10:00 1,3°C 91,3% 0,0°C 982,4hPa 1,3°C 0,0km/h (0Bft) 0,0km/h 0,0l/m² 1,016klx 0,0min
09:55 1,3°C 90,3% -0,1°C 982,4hPa 1,3°C 0,0km/h (0Bft) 0,0km/h 0,0l/m² 1,081klx 0,0min
09:50 1,3°C 89,9% -0,1°C 982,4hPa 1,3°C 0,0km/h (0Bft) 0,0km/h 0,0l/m² 1,163klx 0,0min
09:45 1,4°C 89,5% -0,1°C 982,4hPa 1,4°C 0,0km/h (0Bft) 0,0km/h 0,0l/m² 1,160klx 0,0min
09:40 1,5°C 88,6% -0,2°C 982,3hPa 1,5°C 0,0km/h (0Bft) 0,0km/h 0,0l/m² 1,029klx 0,0min
09:35 1,6°C 87,3% -0,3°C 982,4hPa 1,6°C 0,0km/h (0Bft) 0,0km/h 0,0l/m² 0,850klx 0,0min
09:30 1,6°C 87,2% -0,3°C 982,4hPa 1,6°C 0,0km/h (0Bft) 0,0km/h 0,0l/m² 0,829klx 0,0min
09:25 1,5°C 87,6% -0,3°C 982,6hPa 1,5°C 0,0km/h (0Bft) 0,0km/h 0,0l/m² 0,687klx 0,0min
09:20 1,5°C 87,5% -0,3°C 982,8hPa 1,5°C 0,0km/h (0Bft) 0,0km/h 0,0l/m² 0,608klx 0,0min
09:15 1,5°C 87,4% -0,4°C 983,0hPa 1,5°C 0,0km/h (0Bft) 0,0km/h 0,0l/m² 0,560klx 0,0min
09:10 1,5°C 87,5% -0,4°C 983,1hPa 1,5°C 0,0km/h (0Bft) 0,0km/h 0,0l/m² 0,421klx 0,0min
09:05 1,4°C 87,5% -0,4°C 983,1hPa 1,4°C 0,0km/h (0Bft) 0,0km/h 0,0l/m² 0,381klx 0,0min
09:00 1,5°C 87,4% -0,4°C 983,1hPa 1,5°C 0,0km/h (0Bft) 0,0km/h 0,0l/m² 0,338klx 0,0min
08:55 1,4°C 87,5% -0,5°C 983,1hPa 1,4°C 0,0km/h (0Bft) 0,0km/h 0,0l/m² 0,280klx 0,0min
08:50 1,4°C 87,4% -0,5°C 983,2hPa 1,4°C 0,0km/h (0Bft) 0,0km/h 0,0l/m² 0,250klx 0,0min
08:45 1,3°C 87,6% -0,5°C 983,1hPa 1,3°C 0,0km/h (0Bft) 0,0km/h 0,0l/m² 0,191klx 0,0min
08:40 1,3°C 87,6% -0,5°C 983,1hPa 1,3°C 0,0km/h (0Bft) 0,0km/h 0,0l/m² 0,140klx 0,0min
08:35 1,3°C 87,8% -0,5°C 983,1hPa 1,3°C 0,0km/h (0Bft) 0,0km/h 0,0l/m² 0,106klx 0,0min
08:30 1,3°C 88,1% -0,5°C 983,1hPa 1,3°C 0,0km/h (0Bft) 0,0km/h 0,0l/m² 0,079klx 0,0min
08:25 1,3°C 87,9% -0,5°C 982,9hPa 1,3°C 0,0km/h (0Bft) 0,0km/h 0,0l/m² 0,057klx 0,0min
08:20 1,2°C 88,0% -0,6°C 982,8hPa 1,2°C 0,0km/h (0Bft) 0,0km/h 0,0l/m² 0,037klx 0,0min
08:15 1,2°C 87,9% -0,6°C 982,7hPa 1,2°C 0,0km/h (0Bft) 0,0km/h 0,0l/m² 0,022klx 0,0min
08:10 1,1°C 88,1% -0,6°C 982,8hPa 1,1°C 0,0km/h (0Bft) 0,0km/h 0,0l/m² 0,012klx 0,0min
08:05 1,2°C 88,5% -0,5°C 982,7hPa 1,2°C 0,0km/h (0Bft) 0,0km/h 0,0l/m² 0,006klx 0,0min
08:00 1,1°C 88,5% -0,6°C 982,8hPa 1,1°C 0,0km/h (0Bft) 0,0km/h 0,0l/m² 0,003klx 0,0min
07:55 1,1°C 88,4% -0,6°C 982,8hPa 1,1°C 0,0km/h (0Bft) 0,0km/h 0,0l/m² 0,002klx 0,0min
07:50 1,1°C 88,5% -0,6°C 982,8hPa 1,1°C 0,0km/h (0Bft) 0,0km/h 0,0l/m² 0,001klx 0,0min
07:45 1,0°C 88,6% -0,6°C 982,9hPa 1,0°C 0,0km/h (0Bft) 0,0km/h 0,0l/m² 0,001klx 0,0min
07:40 1,0°C 88,2% -0,7°C 982,8hPa 1,0°C 0,0km/h (0Bft) 0,0km/h 0,0l/m² 0,001klx 0,0min
07:35 1,0°C 88,6% -0,7°C 982,7hPa 1,0°C 0,0km/h (0Bft) 0,0km/h 0,0l/m² 0,001klx 0,0min
07:30 1,0°C 88,5% -0,7°C 982,9hPa 1,0°C 0,0km/h (0Bft) 0,0km/h 0,0l/m² 0,001klx 0,0min
07:25 1,0°C 88,6% -0,7°C 983,0hPa 1,0°C 0,0km/h (0Bft) 0,0km/h 0,0l/m² 0,001klx 0,0min
07:20 1,0°C 88,8% -0,6°C 983,1hPa 1,0°C 0,0km/h (0Bft) 0,0km/h 0,0l/m² 0,001klx 0,0min
07:15 1,0°C 89,1% -0,6°C 983,1hPa 1,0°C 0,0km/h (0Bft) 0,0km/h 0,0l/m² 0,000klx 0,0min
07:10 1,0°C 88,9% -0,6°C 983,0hPa 1,0°C 0,0km/h (0Bft) 0,0km/h 0,0l/m² 0,000klx 0,0min
07:05 1,0°C 89,0% -0,6°C 983,1hPa 1,0°C 0,0km/h (0Bft) 0,0km/h 0,0l/m² 0,001klx 0,0min
07:00 1,0°C 89,0% -0,6°C 983,1hPa 1,0°C 0,0km/h (0Bft) 0,0km/h 0,0l/m² 0,001klx 0,0min
06:55 1,1°C 89,0% -0,5°C 983,2hPa 1,1°C 0,0km/h (0Bft) 0,0km/h 0,0l/m² 0,000klx 0,0min
06:50 1,1°C 88,7% -0,6°C 983,2hPa 1,1°C 0,0km/h (0Bft) 0,0km/h 0,0l/m² 0,000klx 0,0min
06:45 1,1°C 88,8% -0,6°C 983,3hPa 1,1°C 0,0km/h (0Bft) 0,0km/h 0,0l/m² 0,000klx 0,0min
06:40 1,2°C 88,6% -0,5°C 983,5hPa 1,2°C 0,0km/h (0Bft) 0,0km/h 0,0l/m² 0,001klx 0,0min
06:35 1,2°C 88,0% -0,6°C 983,7hPa 1,2°C 0,0km/h (0Bft) 0,0km/h 0,0l/m² 0,001klx 0,0min
06:30 1,2°C 88,4% -0,5°C 983,7hPa 1,2°C 0,0km/h (0Bft) 0,0km/h 0,0l/m² 0,001klx 0,0min
06:25 1,3°C 88,3% -0,5°C 983,8hPa 1,3°C 0,0km/h (0Bft) 0,0km/h 0,0l/m² 0,001klx 0,0min
06:20 1,3°C 88,2% -0,5°C 983,9hPa 1,3°C 0,0km/h (0Bft) 0,0km/h 0,0l/m² 0,001klx 0,0min
06:15 1,3°C 88,3% -0,4°C 984,1hPa 1,3°C 0,0km/h (0Bft) 0,0km/h 0,0l/m² 0,000klx 0,0min
06:10 1,3°C 88,2% -0,4°C 984,2hPa 1,3°C 0,0km/h (0Bft) 0,0km/h 0,0l/m² 0,000klx 0,0min
06:05 1,3°C 87,8% -0,5°C 984,3hPa 1,3°C 0,0km/h (0Bft) 0,0km/h 0,0l/m² 0,000klx 0,0min
06:00 1,3°C 87,3% -0,5°C 984,1hPa 1,3°C 0,0km/h (0Bft) 0,0km/h 0,0l/m² 0,000klx 0,0min
05:55 1,4°C 87,1% -0,5°C 984,2hPa 1,4°C 0,0km/h (0Bft) 0,0km/h 0,0l/m² 0,000klx 0,0min
05:50 1,4°C 87,7% -0,4°C 984,0hPa 1,4°C 0,0km/h (0Bft) 0,0km/h 0,0l/m² 0,000klx 0,0min
05:45 1,4°C 87,8% -0,4°C 984,0hPa 1,4°C 0,0km/h (0Bft) 0,0km/h 0,0l/m² 0,000klx 0,0min
05:40 1,5°C 87,8% -0,3°C 984,1hPa 1,5°C 0,0km/h (0Bft) 0,0km/h 0,0l/m² 0,000klx 0,0min
05:35 1,5°C 87,9% -0,3°C 984,3hPa 1,5°C 0,0km/h (0Bft) 0,0km/h 0,0l/m² 0,000klx 0,0min
05:30 1,5°C 88,2% -0,2°C 984,3hPa 1,5°C 0,0km/h (0Bft) 0,0km/h 0,0l/m² 0,000klx 0,0min
05:25 1,6°C 88,5% -0,1°C 984,2hPa 1,6°C 0,0km/h (0Bft) 0,0km/h 0,0l/m² 0,000klx 0,0min
05:20 1,6°C 88,2% -0,1°C 984,3hPa 1,6°C 0,0km/h (0Bft) 0,0km/h 0,0l/m² 0,000klx 0,0min
05:15 1,7°C 88,8% 0,0°C 984,4hPa 1,7°C 0,0km/h (0Bft) 0,0km/h 0,0l/m² 0,000klx 0,0min
05:10 1,7°C 88,1% -0,1°C 984,3hPa 1,7°C 0,0km/h (0Bft) 0,0km/h 0,0l/m² 0,000klx 0,0min
05:05 1,8°C 87,5% -0,1°C 984,3hPa 1,8°C 0,0km/h (0Bft) 0,0km/h 0,0l/m² 0,000klx 0,0min
05:00 1,9°C 87,9% 0,1°C 984,5hPa 1,9°C 0,0km/h (0Bft) 0,0km/h 0,0l/m² 0,000klx 0,0min
04:55 2,1°C 87,6% 0,2°C 984,6hPa 2,1°C 0,0km/h (0Bft) 0,0km/h 0,0l/m² 0,000klx 0,0min
04:50 2,2°C 87,4% 0,3°C 984,5hPa 2,2°C 0,0km/h (0Bft) 0,0km/h 0,0l/m² 0,000klx 0,0min
04:45 2,4°C 86,7% 0,4°C 984,5hPa 2,4°C 0,0km/h (0Bft) 0,0km/h 0,0l/m² 0,000klx 0,0min
04:40 2,6°C 85,4% 0,3°C 984,6hPa 2,6°C 0,0km/h (0Bft) 0,0km/h 0,0l/m² 0,000klx 0,0min
04:35 2,7°C 83,5% 0,2°C 984,7hPa 2,7°C 0,0km/h (0Bft) 0,0km/h 0,0l/m² 0,000klx 0,0min
04:30 2,7°C 83,3% 0,1°C 984,9hPa 2,7°C 0,0km/h (0Bft) 0,0km/h 0,0l/m² 0,000klx 0,0min
04:25 2,5°C 86,5% 0,5°C 985,2hPa 2,5°C 0,0km/h (0Bft) 0,0km/h 0,0l/m² 0,000klx 0,0min
04:20 2,5°C 86,1% 0,4°C 985,2hPa 2,5°C 0,0km/h (0Bft) 0,0km/h 0,0l/m² 0,000klx 0,0min
04:15 2,4°C 86,5% 0,4°C 985,1hPa 2,4°C 0,0km/h (0Bft) 0,0km/h 0,0l/m² 0,000klx 0,0min
04:10 2,5°C 85,0% 0,3°C 985,1hPa 2,5°C 0,0km/h (0Bft) 0,0km/h 0,0l/m² 0,000klx 0,0min
04:05 2,7°C 84,2% 0,3°C 985,0hPa 2,7°C 0,0km/h (0Bft) 0,0km/h 0,0l/m² 0,000klx 0,0min
04:00 2,8°C 83,8% 0,3°C 984,8hPa 2,8°C 0,0km/h (0Bft) 0,0km/h 0,0l/m² 0,000klx 0,0min
03:55 2,8°C 83,6% 0,3°C 984,7hPa 2,8°C 0,0km/h (0Bft) 0,0km/h 0,0l/m² 0,000klx 0,0min
03:50 2,8°C 83,5% 0,3°C 984,5hPa 2,8°C 0,0km/h (0Bft) 0,0km/h 0,0l/m² 0,000klx 0,0min
03:45 2,8°C 84,4% 0,4°C 984,4hPa 2,8°C 0,0km/h (0Bft) 0,0km/h 0,0l/m² 0,000klx 0,0min
03:40 2,9°C 83,7% 0,4°C 984,2hPa 2,9°C 0,0km/h (0Bft) 0,0km/h 0,0l/m² 0,000klx 0,0min
03:35 2,9°C 83,4% 0,3°C 984,1hPa 2,9°C 0,0km/h (0Bft) 0,0km/h 0,0l/m² 0,000klx 0,0min
03:30 2,8°C 84,1% 0,4°C 983,9hPa 2,8°C 0,0km/h (0Bft) 0,0km/h 0,0l/m² 0,000klx 0,0min
03:25 2,8°C 84,7% 0,5°C 983,5hPa 2,8°C 0,0km/h (0Bft) 0,0km/h 0,0l/m² 0,000klx 0,0min
03:20 2,8°C 85,2% 0,6°C 983,4hPa 2,8°C 0,0km/h (0Bft) 0,0km/h 0,0l/m² 0,000klx 0,0min
03:15 2,7°C 88,4% 1,0°C 983,4hPa 2,7°C 0,0km/h (0Bft) 0,0km/h 0,0l/m² 0,000klx 0,0min
03:10 2,9°C 86,9% 0,9°C 983,4hPa 2,9°C 0,0km/h (0Bft) 0,0km/h 0,0l/m² 0,000klx 0,0min
03:05 2,9°C 86,8% 0,9°C 983,5hPa 2,9°C 0,0km/h (0Bft) 0,0km/h 0,0l/m² 0,000klx 0,0min
03:00 2,9°C 86,6% 0,9°C 983,4hPa 2,9°C 0,0km/h (0Bft) 0,0km/h 0,0l/m² 0,000klx 0,0min
02:55 2,9°C 86,7% 0,9°C 983,5hPa 2,9°C 0,0km/h (0Bft) 0,0km/h 0,0l/m² 0,000klx 0,0min
02:50 2,9°C 86,3% 0,8°C 983,4hPa 2,9°C 0,0km/h (0Bft) 0,0km/h 0,0l/m² 0,000klx 0,0min
02:45 3,0°C 85,3% 0,8°C 983,4hPa 3,0°C 0,0km/h (0Bft) 0,0km/h 0,0l/m² 0,000klx 0,0min
02:40 3,0°C 85,1% 0,8°C 983,6hPa 3,0°C 0,0km/h (0Bft) 0,0km/h 0,0l/m² 0,000klx 0,0min
02:35 3,1°C 84,8% 0,7°C 983,6hPa 3,1°C 0,0km/h (0Bft) 0,0km/h 0,0l/m² 0,000klx 0,0min
02:30 3,0°C 85,4% 0,8°C 983,7hPa 3,0°C 0,0km/h (0Bft) 0,0km/h 0,0l/m² 0,000klx 0,0min
02:25 3,0°C 86,0% 0,9°C 983,7hPa 3,0°C 0,0km/h (0Bft) 0,0km/h 0,0l/m² 0,000klx 0,0min
02:20 3,1°C 84,3% 0,7°C 983,5hPa 3,1°C 0,0km/h (0Bft) 0,0km/h 0,0l/m² 0,000klx 0,0min
02:15 3,1°C 83,7% 0,6°C 983,4hPa 3,1°C 0,0km/h (0Bft) 0,0km/h 0,0l/m² 0,000klx 0,0min
02:10 3,2°C 83,8% 0,7°C 983,3hPa 3,2°C 0,0km/h (0Bft) 0,0km/h 0,0l/m² 0,000klx 0,0min
02:05 3,1°C 84,4% 0,7°C 983,3hPa 3,1°C 0,0km/h (0Bft) 0,0km/h 0,0l/m² 0,000klx 0,0min
02:00 3,2°C 83,9% 0,7°C 983,4hPa 3,2°C 0,0km/h (0Bft) 0,0km/h 0,0l/m² 0,000klx 0,0min
01:55 3,2°C 83,9% 0,8°C 983,3hPa 3,2°C 0,0km/h (0Bft) 0,0km/h 0,0l/m² 0,000klx 0,0min
01:50 3,3°C 83,4% 0,8°C 983,3hPa 3,3°C 0,0km/h (0Bft) 0,0km/h 0,0l/m² 0,000klx 0,0min
01:45 3,3°C 84,0% 0,9°C 983,1hPa 3,3°C 0,0km/h (0Bft) 0,0km/h 0,0l/m² 0,000klx 0,0min
01:40 3,4°C 84,2% 0,9°C 982,9hPa 3,4°C 0,0km/h (0Bft) 0,0km/h 0,0l/m² 0,000klx 0,0min
01:35 3,4°C 84,2% 0,9°C 982,8hPa 3,4°C 0,0km/h (0Bft) 0,0km/h 0,0l/m² 0,000klx 0,0min
01:30 3,4°C 83,9% 0,9°C 982,7hPa 3,4°C 0,0km/h (0Bft) 0,0km/h 0,0l/m² 0,000klx 0,0min
01:25 3,4°C 84,4% 1,0°C 982,5hPa 3,4°C 0,0km/h (0Bft) 0,0km/h 0,0l/m² 0,000klx 0,0min
01:20 3,4°C 84,5% 1,0°C 982,3hPa 3,4°C 0,0km/h (0Bft) 0,0km/h 0,0l/m² 0,000klx 0,0min
01:15 3,4°C 84,2% 1,0°C 982,1hPa 3,4°C 0,0km/h (0Bft) 0,0km/h 0,0l/m² 0,000klx 0,0min
01:10 3,4°C 83,7% 0,9°C 981,8hPa 3,4°C 0,0km/h (0Bft) 0,0km/h 0,0l/m² 0,000klx 0,0min
01:05 3,3°C 84,1% 0,9°C 981,6hPa 3,3°C 0,0km/h (0Bft) 0,0km/h 0,0l/m² 0,000klx 0,0min
01:00 3,3°C 84,0% 0,9°C 981,3hPa 3,3°C 0,0km/h (0Bft) 0,0km/h 0,0l/m² 0,000klx 0,0min
00:55 3,3°C 84,7% 1,0°C 981,2hPa 3,3°C 0,0km/h (0Bft) 0,0km/h 0,0l/m² 0,000klx 0,0min
00:50 3,4°C 84,8% 1,1°C 981,0hPa 3,4°C 0,0km/h (0Bft) 0,0km/h 0,0l/m² 0,000klx 0,0min
00:45 3,5°C 84,6% 1,1°C 980,9hPa 3,5°C 0,0km/h (0Bft) 0,0km/h 0,0l/m² 0,000klx 0,0min
00:40 3,5°C 84,6% 1,2°C 980,7hPa 3,5°C 0,0km/h (0Bft) 0,0km/h 0,0l/m² 0,000klx 0,0min
00:35 3,6°C 84,9% 1,3°C 980,5hPa 3,6°C 0,0km/h (0Bft) 0,0km/h 0,0l/m² 0,000klx 0,0min
00:30 3,7°C 84,3% 1,3°C 980,3hPa 3,7°C 0,0km/h (0Bft) 0,0km/h 0,0l/m² 0,000klx 0,0min
00:25 3,7°C 84,9% 1,4°C 980,1hPa 3,7°C 0,0km/h (0Bft) 0,0km/h 0,0l/m² 0,000klx 0,0min
00:20 3,6°C 87,1% 1,7°C 979,9hPa 3,6°C 0,0km/h (0Bft) 0,0km/h 0,0l/m² 0,000klx 0,0min
00:15 3,7°C 87,7% 1,8°C 979,8hPa 3,7°C 0,0km/h (0Bft) 0,0km/h 0,0l/m² 0,000klx 0,0min
00:10 3,8°C 86,9% 1,8°C 979,8hPa 3,8°C 0,0km/h (0Bft) 0,0km/h 0,0l/m² 0,000klx 0,0min
00:05 3,8°C 87,4% 1,9°C 979,6hPa 3,8°C 0,0km/h (0Bft) 0,0km/h 0,0l/m² 0,000klx 0,0min
00:00 3,9°C 87,0% 1,9°C 979,4hPa 3,9°C 0,0km/h (0Bft) 0,0km/h 0,0l/m² 0,000klx 0,0min

Aktuelle Wetterdaten

11.12.2017 12:05 Uhr